sat.trackr.live / text

‹ back to catalog

ONEWEB-0250

NORAD 48968 · 2021-060B

PAYLOAD ACTIVE UNKNOWN

§ Identity

Operator
Country
UK
Launch date
2021-07-01
Launch site
VOSTO
Launch vehicle
Mass (kg)
RCS (m²)

Purposes: comms

External: N2YO · Heavens-Above · Gunter

§ Orbital elements

Epoch: 2026-05-24T23:42:41.349312Z

Period
108.61 min
Inclination
87.9107°
Eccentricity
0.0001892
Mean motion
13.25832564 rev/d
Perigee alt
1,161.1 km
Apogee alt
1,164.0 km
Semi-major
7,540.7 km
B*
1.6861e-4
RAAN
231.2160°
Arg perigee
130.0510°
Mean anomaly
230.0792°
Rev number
23,714

§ Raw data

ONEWEB-02501 48968U 21060B   26144.98797858  .00000087  00000+0  16861-3 0  99912 48968  87.9107 231.2160 0001892 130.0510 230.0792 13.25832564237143

JSON: /api/v1/satellites/48968 · /tle

For live sub-satellite position, see the globe view (requires WebGL).

§ Visibility from observer

Set your observer location to see the next 7 days of passes ≥ 10°. The values pass through the URL so the page stays shareable.

No JS? Fill the form by hand. The geolocation button needs JavaScript.